Location: Vihti�l�
(61.3833°N, 23.0667°E)
Time: 04:52:02
(UTC+00:00)

MOS 1 Rocket - Pass Details

Date: 29 November 2020
Orbit: 614 x 831 km, 97.4° (Epoch: 22 January)

Event Time Altitude Azimuth Distance (km) Brightness Sun altitude
Rises 03:33:48 0° 155° (SSE) 3,132 7.0 -23.8°
Reaches altitude 10° 03:36:01 10° 154° (SSE) 2,247 6.2 -23.6°
Maximum altitude 03:40:58 76° 70° (ENE) 802 3.6 -23.0°
Enters shadow 03:46:12 10° 345° (NNW) 2,362 5.8 -22.4°
